This is the latest recevied weather packets stored in our database for station/object WX4ET. If no packets are shown the sender has not sent any weather packets the latest 10 day(s).
| Time | Temp. | Humidity | Pressure | Rain* | Wind** | Luminosity | Snow |
|---|---|---|---|---|---|---|---|
| 1777845157 | 18.33° C | 39% | 1011.6 hPa | 0 mm | - | 302 W/m² | - |
| 1777844855 | 18.89° C | 37% | 1011.8 hPa | 0 mm | - | 326 W/m² | - |
| 1777844551 | 18.89° C | 40% | 1011.8 hPa | 0 mm | - | 338 W/m² | - |
| 1777844249 | 18.89° C | 37% | 1011.8 hPa | 0 mm | - | 341 W/m² | - |
| 1777843946 | 18.89° C | 37% | 1012.1 hPa | 0 mm | - | 347 W/m² | - |
| 1777843643 | 18.89° C | 37% | 1012.1 hPa | 0 mm | - | 335 W/m² | - |
| 1777843341 | 18.33° C | 37% | 1012 hPa | 0 mm | - | 372 W/m² | - |
| 1777843038 | 18.89° C | 36% | 1012 hPa | 0 mm | - | 398 W/m² | - |
| 1777842734 | 18.89° C | 38% | 1012.1 hPa | 0 mm | - | 403 W/m² | - |
| 1777842430 | 18.89° C | 37% | 1012.2 hPa | 0 mm | - | 403 W/m² | - |
| 1777842127 | 18.89° C | 38% | 1012.1 hPa | 0 mm | - | 426 W/m² | - |
| 1777841822 | 18.33° C | 37% | 1012.2 hPa | 0 mm | - | 425 W/m² | - |
| 1777841519 | 18.33° C | 37% | 1012.1 hPa | 0 mm | - | 444 W/m² | - |
| 1777841215 | 18.89° C | 38% | 1012.4 hPa | 0 mm | - | 464 W/m² | - |
| 1777840913 | 18.89° C | 40% | 1012.2 hPa | 0 mm | - | 468 W/m² | - |
| 1777840610 | 18.33° C | 40% | 1012.5 hPa | 0 mm | - | 487 W/m² | - |
| 1777840308 | 18.33° C | 39% | 1012.5 hPa | 0 mm | - | 494 W/m² | - |
| 1777840004 | 17.78° C | 40% | 1012.6 hPa | 0 mm | - | 502 W/m² | - |
| 1777839703 | 17.78° C | 37% | 1012.8 hPa | 0 mm | - | 514 W/m² | - |
| 1777839401 | 18.33° C | 38% | 1012.8 hPa | 0 mm | - | 512 W/m² | - |
| 1777839097 | 17.78° C | 39% | 1013 hPa | 0 mm | - | 539 W/m² | - |
| 1777838793 | 17.22° C | 37% | 1012.9 hPa | 0 mm | - | 532 W/m² | - |
| 1777838490 | 17.78° C | 38% | 1013 hPa | 0 mm | - | 540 W/m² | - |
| 1777838187 | 17.78° C | 38% | 1013.1 hPa | 0 mm | - | 560 W/m² | - |
| 1777837884 | 17.78° C | 36% | 1013.1 hPa | 0 mm | - | 562 W/m² | - |
* Rain latest hour (hover to see other rain measurements)
** Current wind speed in m/s (hover to see current wind gust speed)